Regional Weather Roundup
Issued by NWS

Home | Current Version | Previous Version | Text Only | Print | Product List | Glossary Off
Versions: 1 2 3 4 5 6 7 8 9 10 11 12 13 14 15 16 17 18 19 20 21 22 23 24 25 26 27 28 29 30 31 32 33 34 35 36 37 38 39 40 41 42 43 44 45 46 47 48 49 50

000
ASUS43 KDMX 170306
RWRIA

WEATHER ROUNDUP FOR IOWA
NATIONAL WEATHER SERVICE DES MOINES IA
900 PM CST MON JAN 16 2017

NOTE: "FAIR" INDICATES FEW OR NO CLOUDS BELOW 12,000 FEET WITH NO
SIGNIFICANT WEATHER AND/OR OBSTRUCTIONS TO VISIBILITY.

* - THESE STATIONS ARE NOT NWS STATIONS...THUS NOT UNDER NWS
QUALITY CONTROL.  THEY ALSO DO NOT REPORT WEATHER SUCH
AS PRECIPITATION OR FOG.

IAZ001>003-012>014-020>022-031>034-043>046-170400-
   NORTHWEST IOWA

CITY           SKY/WX    TMP DP  RH WIND       PRES   REMARKS
CARROLL *      CLOUDY    34  34 100 N9        29.91S FOG     WCI  26
CHEROKEE *     MIX PCPN  32  32 100 CALM      29.95S
DENISON *      LGT RAIN  32  32 100 N7        29.91S WCI  26
LE MARS *      CLOUDY    32  32 100 N7        29.97F FOG     WCI  26
ORANGE CITY *  LGT RAIN  32  32 100 N3        29.95F
SHELDON *      LGT RAIN  32  32 100 N8        29.93F WCI  25
SIOUX CITY     LGT RAIN  34  32  92 NW12      29.97S FOG     WCI  25
SPENCER        FRZ RAIN  32  31  96 N9        29.94F WCI  24
STORM LAKE *   LGT RAIN  32  32 100 N9        29.92F WCI  24
$$

IAZ055>058-069>071-079>083-090>094-170400-
   SOUTHWEST IOWA

CITY           SKY/WX    TMP DP  RH WIND       PRES   REMARKS
ATLANTIC *     CLOUDY    34  34 100 N9        29.91S FOG     WCI  26
AUDUBON *      FOG       32  30  93 N3        29.92S VSB 1
CLARINDA *     CLOUDY    34  34 100 N6        29.93R FOG     WCI  29
COUNCIL BLFS * CLOUDY    32  32 100 N9G17     29.93S WCI  24
CRESTON *      FOG       32  32 100 NE6       29.89S VSB 1/2 WCI  26
HARLAN  *      CLOUDY    32  32 100 N8        29.95S FOG     WCI  25
LAMONI         CLOUDY    34  33  96 N5        29.86S FOG     WCI  30
RED OAK *      CLOUDY    34  34 100 N7        29.92S WCI  28
SHENANDOAH *   CLOUDY    34  34 100 NW8       29.94R FOG     WCI  27
$$

IAZ047>049-059>061-072>074-084-170400-
   CENTRAL IOWA

CITY           SKY/WX    TMP DP  RH WIND       PRES   REMARKS
AMES           CLOUDY    33  33 100 N5        29.88F WCI  29
ANKENY *       FOG       32  32 100 CALM      29.89F VSB 1/4
BOONE *        FOG       32  32 100 N7        29.87F VSB 1/4 WCI  26
CHARITON *     LGT RAIN  34  32  93 NW7       29.86S WCI  28
DES MOINES     FOG       34  33  96 CALM      29.88F VSB 1/4
GRINNELL*      RAIN      33  33  99 N5        29.88S VSB 1/2 WCI  28
KNOXVILLE *    LGT RAIN  34  34 100 NW8       29.86R VSB 1/4 WCI  27
MARSHALLTOWN   CLOUDY    33  33 100 NE3       29.87S FOG
NEWTON *       FOG       34  32  93 NE7       29.87S VSB 1   WCI  28
PELLA *        DRZL/FOG  34  33  98 N6        29.89R VSB 1/2 WCI  29
PERRY *        CLOUDY    33  33 100 NW5       29.89F FOG     WCI  29
$$

IAZ004>006-015-016-023>025-035-036-170400-
   NORTH CENTRAL IOWA

CITY           SKY/WX    TMP DP  RH WIND       PRES   REMARKS
ALGONA *       CLOUDY    32  32 100 N10       29.92S FOG     WCI  24
CLARION *      CLOUDY    32  32 100 NE7       29.90S WCI  26
ESTHERVILLE    CLOUDY    31  31 100 N12       29.93F WCI  22
FORT DODGE *   CLOUDY    32  30  93 CALM      29.92R
MASON CITY     CLOUDY    32  31  96 NE10      29.91F FOG     WCI  24
FOREST CITY *  CLOUDY    32  32 100 NE7       29.91F FOG     WCI  26
WEBSTER CITY * CLOUDY    34  34 100 N5        29.88S FOG     WCI  30
IOWA FALLS *   CLOUDY    33  32  96 NE3       29.89S FOG
$$

IAZ007>011-017>019-026>030-037>042-050>054-066-170400-
   NORTHEAST IOWA

CITY           SKY/WX    TMP DP  RH WIND       PRES   REMARKS
CEDAR RAPIDS   DRZL/FOG  34  34 100 NE6       29.86S VSB 1/4 WCI  29
CHARLES CITY * CLOUDY    34  34 100 MISG      29.90F FOG
CLINTON *      MIX PCPN  36  35  96 E8        29.88F FOG     WCI  30
DECORAH *      CLOUDY    32  32 100 NE6       29.89F FOG     WCI  26
DUBUQUE        FOG       33  33 100 NE6       29.88F VSB 1/4 WCI  28
MONTICELLO *   LGT RAIN  36  34  93 NE5       29.87F WCI  32
OELWEIN *      CLOUDY    34  34 100 E8        29.88F FOG     WCI  27
WATERLOO       CLOUDY    33  32  96 NE5       29.88F FOG     WCI  29
$$

IAZ064-065-067-068-078-170400-
   EAST CENTRAL IOWA

CITY           SKY/WX    TMP DP  RH WIND       PRES   REMARKS
DAVENPORT      FOG       35  34  96 E9        29.86F VSB 1/2 WCI  28
IOWA CITY      FOG       37  36  96 NE3       29.88F VSB 1
MUSCATINE *    MIX PCPN  37  36  93 NE3       29.86F VSB 1/4
QUAD CITIES    FOG       36  34  92 E8        29.85F VSB 1/2 WCI  30
$$

IAZ062-063-075>077-085>089-095>099-170400-
   SOUTHEAST IOWA

CITY           SKY/WX    TMP DP  RH WIND       PRES   REMARKS
BURLINGTON     RAIN      40  40 100 NE3       29.83F VSB 1
FAIRFIELD *    FOG       37  37 100 CALM      29.85S VSB 1/2
FORT MADISON * MIX PCPN  39  39 100 CALM      29.86R VSB 3/4
KEOKUK *       RAIN      41  41 100 N6        29.84S
OSKALOOSA *    LGT RAIN  35  34  99 N3        29.86S VSB 3/4
CENTERVILLE *  LGT RAIN  37  37 100 CALM      29.86R
OTTUMWA        LGT RAIN  37  37 100 NE3       29.84S FOG
WASHINGTON *   LGT RAIN  36  36 100 CALM      29.86F VSB<1/4
$$

ABBREVIATIONS USED IN REMARKS
   TC - TEMPERATURES IN CELSIUS
  WCI - WIND CHILL INDEX
   HX - HEAT INDEX
  VSB - VISIBILITY
$$





USA.gov is the U.S. government's official web portal to all federal, state and local government web resources and services.